Find Starlink 5358

NORAD ID: 57143 Int'l Des: 2023-090 Owner: SPXS Country: US Constellation: starlink operational
LEOCIRCULAR

リアルタイム位置

3D地球を読み込み中...

Starlink 5358について

説明を読み込み中...

次回通過

Passes for default location (London). Set your location on the main map for personalized predictions.

高度履歴

Loading altitude history...

軌道要素

1 57143U 23090AU 26105.86859206 -.00000213 00000-0 17479-5 0 9992
2 57143 43.0031 53.0104 0000997 265.9450 94.1287 15.26742520156043
Epoch: Apr 15, 2026 • Age: 12 hours

現在のステータス

高度 485.4 km
速度 7.63 km/s
衛星直下点 21.38°N, 126.12°W
打ち上げ日 Jun 23, 2023
運用期間 2.8 years
タイプ internet

技術仕様

分類 Payload
質量 305.00 kg
乾燥質量 290.00 kg
総質量 305.00 kg
長さ 0.20 m
直径 2.80 m
スパン 9.00 m
形状 Box + pan
製造者 SPXS
バスタイプ Starlink
フェーズステータス In Orbit
所有者/国 SPXS/US

Most Searched